SRMSAT

Last updated on Tue Oct 21 2025 00:02:30 GMT+0000 (Coordinated Universal Time)

1 37841U 11058D 25293.65727689 .00000560 00000+0 16026-3 0 9997 2 37841 19.9720 69.2095 0011828 88.3776 29.4847 14.11483830723934
UTC large
Height (km)
Speed (km/s)
/
Latitude / Longitude
Inclination (degrees)
Orbital Period (minutes)
Azimuth
Elevation
Range (km)
Doppler Factor

Next 0 passes for location: London (51.5072 / 0.1276)

Sorry there are no passes over London.